TimeEDT,TemperatureF,Dew PointF,Humidity,Sea Level PressureIn,VisibilityMPH,Wind Direction,Wind SpeedMPH,Gust SpeedMPH,PrecipitationIn,Events,Conditions,WindDirDegrees,DateUTC
12:00 AM,48.0,46.0,93,30.12,6.0,Calm,Calm,-,N/A,,Scattered Clouds,0,2012-10-08 04:00:00
1:00 AM,44.6,44.6,100,30.13,2.5,Calm,Calm,-,N/A,,Clear,0,2012-10-08 05:00:00
1:06 AM,44.1,43.0,96,30.13,2.5,Calm,Calm,-,N/A,,Clear,0,2012-10-08 05:06:00
1:39 AM,42.8,42.8,100,30.13,0.2,Calm,Calm,-,N/A,Fog,Fog,0,2012-10-08 05:39:00
2:00 AM,42.1,41.0,96,30.13,0.2,Calm,Calm,-,N/A,Fog,Fog,0,2012-10-08 06:00:00
3:00 AM,42.8,42.8,100,30.15,2.0,NW,4.6,-,N/A,,Mostly Cloudy,310,2012-10-08 07:00:00
3:08 AM,42.8,42.8,100,30.15,3.0,NW,3.5,-,N/A,,Scattered Clouds,310,2012-10-08 07:08:00
3:38 AM,43.0,42.1,97,30.14,3.0,WNW,4.6,-,N/A,,Clear,300,2012-10-08 07:38:00
3:49 AM,41.0,41.0,100,30.15,2.5,WNW,4.6,-,N/A,,Clear,300,2012-10-08 07:49:00
4:00 AM,42.1,42.1,100,30.15,2.5,NW,3.5,-,N/A,,Clear,310,2012-10-08 08:00:00
4:16 AM,42.8,42.8,100,30.15,3.0,NNW,3.5,-,N/A,,Clear,330,2012-10-08 08:16:00
5:23 AM,39.2,39.2,100,30.16,2.5,Calm,Calm,-,N/A,,Clear,0,2012-10-08 09:23:00
5:42 AM,41.0,39.2,93,30.17,3.0,NW,3.5,-,N/A,,Clear,310,2012-10-08 09:42:00
6:00 AM,39.0,39.0,100,30.19,3.0,WNW,3.5,-,N/A,,Clear,290,2012-10-08 10:00:00
6:09 AM,39.2,39.2,100,30.19,2.5,Calm,Calm,-,N/A,,Clear,0,2012-10-08 10:09:00
6:28 AM,39.2,39.2,100,30.19,3.0,NW,3.5,-,N/A,,Clear,310,2012-10-08 10:28:00
7:12 AM,39.2,39.2,100,30.22,3.0,WNW,3.5,-,N/A,,Clear,300,2012-10-08 11:12:00
8:00 AM,41.0,41.0,100,30.24,4.0,NW,4.6,-,N/A,,Clear,310,2012-10-08 12:00:00
9:00 AM,44.1,43.0,96,30.25,8.0,NW,4.6,-,N/A,,Clear,310,2012-10-08 13:00:00
10:00 AM,48.0,43.0,83,30.27,10.0,Variable,3.5,-,N/A,,Clear,0,2012-10-08 14:00:00
12:00 PM,51.1,42.1,71,30.27,10.0,Calm,Calm,-,N/A,,Scattered Clouds,0,2012-10-08 16:00:00
1:00 PM,51.1,43.0,74,30.28,10.0,Calm,Calm,-,N/A,,Overcast,0,2012-10-08 17:00:00
2:00 PM,51.1,44.1,77,30.26,10.0,Calm,Calm,-,N/A,,Overcast,0,2012-10-08 18:00:00
3:00 PM,51.1,45.0,80,30.25,10.0,Calm,Calm,-,0.00,,Mostly Cloudy,0,2012-10-08 19:00:00
4:00 PM,52.0,46.0,80,30.25,10.0,NW,3.5,-,N/A,,Overcast,320,2012-10-08 20:00:00
5:00 PM,52.0,46.0,80,30.29,10.0,West,4.6,-,N/A,,Overcast,270,2012-10-08 21:00:00
6:00 PM,51.1,46.0,83,30.26,10.0,Calm,Calm,-,N/A,,Overcast,0,2012-10-08 22:00:00
7:00 PM,50.0,46.0,86,30.25,10.0,Calm,Calm,-,N/A,,Overcast,0,2012-10-08 23:00:00
8:00 PM,50.0,46.0,86,30.25,10.0,Calm,Calm,-,N/A,,Overcast,0,2012-10-09 00:00:00
9:00 PM,50.0,45.0,83,30.24,10.0,Variable,3.5,-,N/A,,Overcast,0,2012-10-09 01:00:00
10:00 PM,50.0,44.1,80,30.23,10.0,North,3.5,-,0.00,,Overcast,350,2012-10-09 02:00:00
11:00 PM,50.0,45.0,83,30.22,10.0,Variable,3.5,-,N/A,,Overcast,0,2012-10-09 03:00:00